Date,TemperatureHighF,TemperatureAvgF,TemperatureLowF,DewpointHighF,DewpointAvgF,DewpointLowF,HumidityHigh,HumidityAvg,HumidityLow,PressureMaxIn,PressureMinIn,WindSpeedMaxMPH,WindSpeedAvgMPH,GustSpeedMaxMPH,PrecipitationSumIn
2013-1-1,42.3,37.4,29.6,41.2,35.4,26.8,96,92,89,30.22,30.02,5,1,17,0.33
2013-1-2,34.3,28.9,24.2,26.1,22.9,20.9,90,79,58,30.31,30.20,5,1,10,0.00
2013-1-3,42.8,31.3,19.3,29.5,25.1,17.9,96,79,54,30.44,30.28,4,0,8,0.00
2013-1-4,47.3,33.1,21.5,31.5,26.4,20.0,96,79,49,30.52,30.41,4,0,8,0.00
2013-1-5,44.9,37.4,26.4,36.9,31.4,24.6,94,80,64,30.42,30.27,5,1,12,0.00
2013-1-6,50.1,38.9,28.3,38.3,34.0,26.0,97,84,56,30.40,30.25,6,1,12,0.00
2013-1-7,50.6,35.1,25.3,28.6,26.2,22.5,94,73,39,30.44,30.23,9,1,16,0.00
2013-1-8,57.4,46.1,28.3,45.5,35.6,25.5,90,68,51,30.29,30.16,8,1,14,0.00
2013-1-9,56.5,53.5,51.2,54.5,51.6,45.7,97,93,71,30.35,30.21,10,3,16,0.92
2013-1-10,67.1,61.4,55.0,63.8,59.8,53.9,97,95,88,30.27,29.89,14,5,42,1.21
2013-1-11,67.0,60.6,53.8,60.8,53.6,49.8,95,79,56,30.04,29.92,7,2,13,0.00
2013-1-12,71.5,67.8,62.9,67.2,65.0,61.2,98,91,82,29.95,29.73,11,3,15,0.21
2013-1-13,70.3,41.9,30.4,64.9,39.7,27.0,95,92,82,30.27,29.73,8,2,18,3.48
2013-1-14,30.3,27.6,25.8,26.9,23.8,22.0,89,85,78,30.41,30.27,6,2,15,0.00
2013-1-15,30.3,28.0,24.9,29.0,25.9,22.1,95,92,87,30.29,30.08,6,2,11,0.00
2013-1-16,32.1,30.4,28.5,30.3,28.7,26.7,95,93,91,30.21,30.07,3,0,6,0.00
2013-1-17,46.1,36.9,30.8,36.5,31.7,27.9,94,82,65,30.49,30.15,7,1,12,0.06
2013-1-18,53.4,38.0,21.7,31.2,26.9,20.5,96,68,33,30.58,30.36,4,0,7,0.00
2013-1-19,56.5,46.3,37.5,36.9,33.2,29.4,81,62,42,30.36,30.18,10,2,14,0.00
2013-1-20,59.0,45.6,30.9,37.5,33.0,28.8,93,64,38,30.28,30.16,7,1,12,0.00
2013-1-21,42.9,33.8,22.5,28.5,20.5,16.1,86,60,35,30.36,30.18,8,2,13,0.00
2013-1-22,39.0,30.9,20.3,19.7,18.3,15.9,91,62,42,30.45,30.33,6,1,10,0.00
2013-1-23,54.8,40.2,26.7,42.0,30.6,18.2,92,69,51,30.36,30.18,3,1,8,0.00
2013-1-24,44.2,39.2,34.9,41.0,25.6,19.0,95,59,46,30.44,30.22,7,3,15,0.00
2013-1-25,50.1,39.4,31.2,44.8,33.2,23.0,95,80,49,30.26,30.05,7,1,11,0.06
2013-1-26,54.9,42.7,29.3,35.6,32.2,28.1,97,70,38,30.35,30.25,8,1,10,0.01
2013-1-27,64.1,55.4,47.0,53.5,45.9,34.7,82,70,61,30.26,30.12,8,2,14,0.00
2013-1-28,71.6,63.3,57.5,61.4,57.3,53.2,91,81,69,30.17,30.05,13,4,17,0.00
2013-1-29,75.4,67.7,59.5,64.6,60.7,57.2,96,79,61,30.05,29.45,20,6,28,1.30
2013-1-30,59.8,47.3,33.3,56.2,41.2,26.1,97,80,62,30.05,29.53,14,4,24,1.54
2013-1-31,54.4,40.1,26.5,35.4,28.7,21.7,91,66,41,30.35,30.05,10,2,16,0.00